Location: Newark
(49.2191°N, 12.6671°E)
Time: 13:03:52
(UTC+00:00)

Transit 2A - Pass Details

Date: 29 January 2020
Orbit: 599 x 959 km, 66.7° (Epoch: 25 February)

Event Time Altitude Azimuth Distance (km) Brightness Sun altitude
Rises 17:17:47 0° 180° (S) 2,884 9.2 -12.7°
Reaches altitude 10° 17:20:23 10° 167° (SSE) 1,957 8.1 -13.2°
Maximum altitude 17:23:53 24° 113° (ESE) 1,253 6.7 -13.7°
Enters shadow 17:24:57 22° 90° (E) 1,331 6.7 -13.9°
